Baker, MT

10:02 PM MST on February 22, 2017 (GMT -0700)
Baker Municipal

Weather History for KBHK - June, 2012

Change the Weather History Date:

Wednesday, June 20, 2012

  Actual Average Record
Temperature  
Mean Temperature 56 °F -  
Max Temperature 66 °F 67 °F 91 °F (2003)
Min Temperature 46 °F 50 °F 39 °F (2002)
Degree Days  
Heating Degree Days 9    
Growing Degree Days 6 (Base 50)    
Moisture  
Dew Point 45 °F    
Average Humidity 67    
Maximum Humidity 83    
Minimum Humidity 48    
Precipitation  
Precipitation 0.06 in - - ()
Sea Level Pressure  
Sea Level Pressure 29.97 in    
Wind  
Wind Speed 13 mph (WNW)    
Max Wind Speed 28 mph    
Max Gust Speed 40 mph    
Visibility 10 miles    
Events Rain    
Averages and records for this station are not official NWS values.
T = Trace of Precipitation, MM = Missing Value Source: NWS Daily Summary

Daily Weather History Graph

Daily Weather History Graph

Search for Another Location

Airport or City:

Trip Planner

Search our weather history database for the weather conditions in past years. The results will help you decide how hot, cold, wet, or windy it might be!

Date:

Astronomy

Jun. 20, 2012 Rise Set
Actual Time 5:04 AM MDT 8:52 PM MDT
Civil Twilight 4:25 AM MDT 9:31 PM MDT
Nautical Twilight 3:32 AM MDT 10:24 PM MDT
Astronomical Twilight 2:16 AM MDT 11:40 PM MDT
Moon 6:10 AM MDT (6/20) 9:34 PM MDT (6/20)
Length of Visible Light 17h 06m
Length of Day
15h 48m
New Moon, 1% of the Moon is Illuminated
Jun 20
New Moon
Jun 26
First Quarter
Jul 3
Full
Jul 10
Last Quarter
Jul 18
New

Hourly Weather History & Observations

Time (MDT) Temp. Dew Point Humidity Pressure Visibility Wind Dir Wind Speed Gust Speed Precip Events Conditions
12:51 AM 52.0 °F 42.1 °F 69% 29.85 in 10.0 mi West 5.8 mph - N/A   Clear
1:51 AM 50.0 °F 43.0 °F 77% 29.84 in 10.0 mi West 6.9 mph - N/A   Clear
2:51 AM 50.0 °F 42.1 °F 74% 29.83 in 10.0 mi WNW 8.1 mph - N/A   Clear
3:51 AM 48.0 °F 42.1 °F 80% 29.89 in 10.0 mi West 6.9 mph - N/A   Clear
4:51 AM 46.9 °F 42.1 °F 83% 29.90 in 10.0 mi West 5.8 mph - N/A   Scattered Clouds
5:51 AM 48.0 °F 42.1 °F 80% 29.91 in 10.0 mi West 8.1 mph - N/A   Partly Cloudy
6:02 AM 48.2 °F 42.8 °F 82% 29.94 in 10.0 mi West 6.9 mph - N/A   Mostly Cloudy
6:08 AM 48.2 °F 42.8 °F 82% 29.94 in 10.0 mi West 8.1 mph - N/A   Scattered Clouds
6:16 AM 50.0 °F 44.6 °F 82% 29.94 in 10.0 mi West 10.4 mph - N/A   Mostly Cloudy
6:51 AM 52.0 °F 44.1 °F 74% 29.90 in 10.0 mi West 17.3 mph - N/A   Scattered Clouds
7:31 AM 53.6 °F 44.6 °F 72% 29.94 in 10.0 mi West 17.3 mph 24.2 mph N/A   Mostly Cloudy
9:51 AM 61.0 °F 46.0 °F 58% 29.93 in 10.0 mi West 25.3 mph 35.7 mph N/A   Mostly Cloudy
10:09 AM 60.8 °F 46.4 °F 59% 29.96 in 10.0 mi West 25.3 mph 40.3 mph N/A   Mostly Cloudy
10:24 AM 57.2 °F 46.4 °F 67% 29.97 in 10.0 mi WNW 24.2 mph 32.2 mph N/A   Overcast
10:51 AM 60.1 °F 46.9 °F 62% 29.94 in 10.0 mi West 26.5 mph 33.4 mph 0.00 in   Overcast
10:59 AM 60.8 °F 46.4 °F 59% 29.97 in 10.0 mi West 27.6 mph 34.5 mph N/A   Mostly Cloudy
11:36 AM 60.8 °F 46.4 °F 59% 29.98 in 10.0 mi West 24.2 mph 31.1 mph N/A   Mostly Cloudy
11:51 AM 60.1 °F 46.0 °F 60% 29.95 in 10.0 mi WNW 21.9 mph 31.1 mph N/A   Mostly Cloudy
12:05 PM 62.6 °F 46.4 °F 55% 29.98 in 10.0 mi West 19.6 mph 28.8 mph N/A   Mostly Cloudy
12:17 PM 60.8 °F 46.4 °F 59% 29.99 in 10.0 mi West 24.2 mph 31.1 mph 0.00 in Rain Light Rain
12:22 PM 60.8 °F 48.2 °F 63% 29.98 in 10.0 mi West 23.0 mph 31.1 mph 0.00 in Rain Light Rain
12:51 PM 64.0 °F 46.0 °F 52% 29.96 in 10.0 mi WNW 23.0 mph 34.5 mph 0.00 in   Mostly Cloudy
1:51 PM 55.9 °F 50.0 °F 80% 29.99 in 4.0 mi WNW 20.7 mph 40.3 mph 0.03 in Rain Rain
2:51 PM 64.9 °F 46.9 °F 52% 29.98 in 10.0 mi WNW 23.0 mph 31.1 mph 0.00 in   Partly Cloudy
3:51 PM 61.0 °F 51.1 °F 70% 30.02 in 10.0 mi WNW 21.9 mph 28.8 mph 0.03 in   Mostly Cloudy
4:51 PM 66.0 °F 46.0 °F 48% 30.02 in 10.0 mi NW 23.0 mph 28.8 mph N/A   Clear
5:51 PM 63.0 °F 46.9 °F 56% 30.04 in 10.0 mi WNW 18.4 mph 26.5 mph N/A   Scattered Clouds
6:51 PM 64.0 °F 46.0 °F 52% 30.04 in 10.0 mi NW 16.1 mph 25.3 mph N/A   Partly Cloudy
7:51 PM 63.0 °F 45.0 °F 52% 30.07 in 10.0 mi NW 15.0 mph 20.7 mph N/A   Clear
8:51 PM 59.0 °F 46.0 °F 62% 30.11 in 10.0 mi West 9.2 mph - N/A   Scattered Clouds
9:51 PM 55.0 °F 46.0 °F 72% 30.11 in 10.0 mi West 9.2 mph - N/A   Mostly Cloudy
10:51 PM 51.1 °F 46.0 °F 83% 30.12 in 10.0 mi West 9.2 mph - N/A   Clear
11:51 PM 50.0 °F 45.0 °F 83% 30.13 in 10.0 mi West 8.1 mph - N/A   Clear